Flag for Czech Republic Weather past 2 weeks in Prague, Czech Republic

46 °F

Scattered clouds.

Feels Like: 41 °F
Forecast: 33 / 49 °F
Wind: 13 mph from East

Location: Prague Ruzyne Airport

Current Time: Oct 10, 2015 at 7:01:31 PM

Latest Report: Oct 10, 2015 at 6:30 PM

Visibility: N/A

Pressure: 30.07 "Hg

Humidity: 53%

Dew point: 30 °F

Location of PragueLocation

Historic Weather in Prague — Graph


Prague temperature yesterday

Maximum temperature yesterday: 54 °F (at 12:00 AM)
Minimum temperature yesterday: 48 °F (at 10:30 PM)
Average temperature yesterday: 51 °F

Past Weeks' High & Low Weather Summary

High66 °F (Oct 2, 4:30 PM)100% (Oct 5, 8:00 AM)30.57 "Hg (Oct 5, 8:00 AM)
Low34 °F (Oct 1, 6:00 AM)34% (Sep 28, 4:00 PM)29.80 "Hg (Oct 6, 3:00 PM)
Average53 °F74%30.20 "Hg
* Reported Sep 25 6:00 PM — Oct 10 6:00 PM, Prague, Weather by CustomWeather, © 2015

Note: Actual official high and low records may vary slightly from our data, if they occured in-between our weather recording intervals... More about our weather records


Prague weather history for previous 24 hours

Time TempWeatherWind HumidityBarometerVisibility
6:00 PM
Sat, Oct 10
50 °FPassing clouds.9 mph58%30.07 "HgN/A
5:30 PM50 °FPartly sunny.9 mph58%30.07 "HgN/A
5:00 PM50 °FPartly sunny.7 mph62%30.07 "HgN/A
4:30 PM50 °FPartly sunny.6 mph67%30.07 "HgN/A
4:00 PM50 °FPartly sunny.7 mph67%30.07 "HgN/A
3:30 PM50 °FPartly sunny.6 mph67%30.07 "HgN/A
3:00 PM48 °FPartly sunny.6 mph71%30.07 "HgN/A
2:30 PM48 °FOvercast.7 mph71%30.07 "HgN/A
2:00 PM48 °FOvercast.7 mph71%30.07 "HgN/A
1:30 PM48 °FOvercast.7 mph66%30.09 "HgN/A
1:00 PM48 °FOvercast.7 mph66%30.09 "HgN/A
12:30 PM48 °FBroken clouds.7 mph66%30.09 "HgN/A
12:00 PM46 °FOvercast.7 mph71%30.09 "HgN/A
11:30 AM46 °FOvercast.7 mph71%30.12 "HgN/A
11:00 AM46 °FOvercast.6 mph71%30.12 "HgN/A
10:30 AM45 °FOvercast.8 mph76%30.12 "HgN/A
10:00 AM45 °FBroken clouds.8 mph76%30.12 "HgN/A
9:30 AM45 °FMore clouds than sun.8 mph76%30.12 "HgN/A
9:00 AM45 °FMore clouds than sun.7 mph81%30.12 "HgN/A
8:30 AM45 °FOvercast.8 mph76%30.12 "HgN/A
8:00 AM45 °FOvercast.7 mph81%30.12 "HgN/A
7:30 AM45 °FOvercast.8 mph81%30.09 "HgN/A
7:00 AM45 °FOvercast.8 mph81%30.09 "HgN/A
6:30 AM45 °FOvercast.9 mph81%30.12 "HgN/A
6:00 AM45 °FOvercast.6 mph87%30.12 "HgN/A
5:30 AM45 °FOvercast.6 mph87%30.12 "HgN/A
5:00 AM45 °FOvercast.6 mph87%30.12 "HgN/A
4:30 AM46 °FOvercast.7 mph87%30.12 "Hg6 mi
4:00 AM45 °FLight rain. Overcast.5 mph93%30.12 "Hg5 mi
3:30 AM45 °FLight rain. Overcast.5 mph93%30.12 "Hg4 mi
3:00 AM46 °FMostly cloudy.7 mph82%30.12 "HgN/A
2:30 AM46 °FOvercast.8 mph87%30.12 "Hg5 mi
2:00 AM46 °FLow clouds.6 mph87%30.12 "Hg5 mi
1:30 AM45 °FFog.9 mph100%30.12 "Hg3 mi
1:00 AM46 °FFog.8 mph93%30.12 "Hg1 mi
12:30 AM46 °FMostly cloudy.9 mph87%30.12 "Hg5 mi
12:00 AM48 °FOvercast.7 mph82%30.12 "HgN/A
11:00 PM
Fri, Oct 9
48 °FOvercast.8 mph82%30.12 "HgN/A
10:30 PM48 °FLow clouds.10 mph76%30.15 "HgN/A
10:00 PM50 °FLow clouds.13 mph76%30.15 "HgN/A
9:30 PM50 °FOvercast.9 mph94%30.12 "Hg4 mi
9:00 PM50 °FFog.7 mph94%30.12 "Hg3 mi
8:30 PM50 °FFog.7 mph94%30.12 "Hg3 mi
8:00 PM52 °FFog.8 mph88%30.12 "Hg3 mi
7:30 PM52 °FFog.8 mph88%30.12 "Hg3 mi
7:00 PM52 °FFog.8 mph88%30.12 "Hg3 mi
Weather by CustomWeather, © 2015

See weather overviewHow to use our weather pages